Location: Vesunti
(61.5000°N, 22.8333°E)
Time: 03:34:55
(UTC+00:00)

CZ-4B R/B - Pass Details

Date: 17 February 2020
Orbit: 487 x 652 km, 97.9° (Epoch: 09 April)

Event Time Altitude Azimuth Distance (km) Brightness Sun altitude
Rises 03:33:51 0° 18° (NNE) 2,715 6.7 -18.9°
Reaches altitude 10° 03:36:02 10° 21° (NNE) 1,793 5.8 -18.6°
Maximum altitude 03:39:52 69° 105° (ESE) 557 2.9 -18.2°
Drops below altitude 10° 03:43:32 10° 189° (S) 1,709 5.2 -17.7°
Enters shadow 03:44:09 - 190° (S) 1,969 5.5 -17.7°
